Flag for U.S.A. Weather past 2 weeks in Boulder, Colorado, U.S.A.

Now
81 °F

Thundershowers. Mostly cloudy.


Feels Like: 81 °F
Forecast: 60 / 85 °F
Wind: 7 mph from Northwest

Location: Broomfield / Jeffco

Current Time: Jul 28, 2014 at 5:29:57 PM

Latest Report: Jul 28, 2014 at 4:46 PM


Visibility: 15 mi

Pressure: 30.31 "Hg

Humidity: 42%

Dew point: 55 °F

Location of BoulderLocation

Historic Weather in Boulder — Graph

°F

Boulder temperature yesterday

Maximum temperature yesterday: 81 °F (at 1:45 PM)
Minimum temperature yesterday: 63 °F (at 3:55 AM)
Average temperature yesterday: 69 °F

Past Weeks' High & Low Weather Summary

 TemperatureHumidityPressure
High95 °F (Jul 21, 1:46 PM)100% (Jul 16, 3:55 AM)30.41 "Hg (Jul 16, 3:55 AM)
Low55 °F (Jul 16, 11:15 PM)12% (Jul 19, 10:55 AM)30.03 "Hg (Jul 18, 4:34 AM)
Average71 °F53%30.18 "Hg
* Reported Jul 13 3:46 PM — Jul 28 3:47 PM, Boulder, Weather by CustomWeather, © 2014

Note: Actual official high and low records may vary slightly from our data, if they occured in-between our weather recording intervals... More about our weather records

Advertising

Boulder weather history for previous 24 hours

 ConditionsComfort  
Time TempWeatherWind HumidityBarometerVisibility
3:47 PM
Jul 28
81 °FScattered showers. Mostly cloudy.14 mph42%30.32 "Hg15 mi
2:55 PM81 °FPartly sunny.No wind39%30.33 "Hg20 mi
1:54 PM82 °FBroken clouds.3 mph40%30.33 "Hg15 mi
12:47 PM81 °FBroken clouds.6 mph45%30.36 "Hg15 mi
11:47 AM77 °FBroken clouds.7 mph51%30.37 "Hg15 mi
10:45 AM75 °FScattered clouds.8 mph57%30.38 "Hg30 mi
9:45 AM72 °FPartly sunny.7 mph61%30.39 "Hg30 mi
8:49 AM68 °FPartly sunny.5 mph69%30.39 "Hg30 mi
7:47 AM66 °FPartly sunny.No wind73%30.38 "Hg30 mi
6:47 AM64 °FPassing clouds.6 mph78%30.36 "Hg30 mi
5:55 AM63 °FClear.7 mph83%30.36 "Hg10 mi
5:35 AM63 °FClear.8 mph83%30.36 "Hg10 mi
4:55 AM63 °FClear.9 mph88%30.36 "Hg10 mi
4:34 AM63 °FClear.9 mph83%30.36 "Hg10 mi
4:15 AM63 °FClear.6 mph77%30.36 "Hg10 mi
3:55 AM64 °FClear.8 mph68%30.35 "Hg10 mi
3:35 AM64 °FClear.8 mph73%30.35 "Hg10 mi
3:15 AM63 °FClear.No wind73%30.35 "Hg10 mi
2:55 AM63 °FClear.3 mph73%30.36 "Hg10 mi
2:35 AM61 °FClear.3 mph77%30.36 "Hg10 mi
2:14 AM61 °FClear.5 mph77%30.36 "Hg10 mi
1:54 AM61 °FClear.6 mph77%30.36 "Hg10 mi
1:34 AM63 °FClear.5 mph73%30.36 "Hg10 mi
12:55 AM64 °FClear.3 mph68%30.38 "Hg10 mi
12:34 AM64 °FClear.No wind68%30.38 "Hg10 mi
12:15 AM63 °FClear.No wind73%30.38 "Hg10 mi
11:54 PM
Jul 27
66 °FClear.8 mph60%30.38 "Hg10 mi
11:35 PM68 °FClear.8 mph60%30.38 "Hg10 mi
11:15 PM68 °FClear.8 mph56%30.38 "Hg10 mi
9:47 PM72 °FPartly cloudy.6 mph50%30.38 "Hg20 mi
8:47 PM73 °FScattered showers. Broken clouds.3 mph47%30.36 "Hg20 mi
7:47 PM77 °FBroken clouds.5 mph51%30.35 "Hg15 mi
6:58 PM79 °FBroken clouds.6 mph45%30.34 "Hg20 mi
Weather by CustomWeather, © 2014

See weather overviewHow to use our weather pages